Погода в Иваки

Япония     37°00′56″N   140°53′35″E
темп.,
°C
ветер,
м/с
пор.,
м/с
влажн.,
%
обл.,
%
осадки,
мм/ч
давл.,
гПа
погр.,
м
8 декабря, ср
ср800:00+13ссв111487100 3.2 10171289
03:00+12ссв91281100 6.4 10171019
06:00+12ссв111582100 3.3 10171214
09:00+12ссв131686100 8.8 10181215
12:00+11ссв141884100 1.9 10181428
15:00+10ссв151985100 4.8 10201480
18:00+10ссв131882100 2.4 10231554
21:00+10с121784100 4.6 10241515
9 декабря, чт
чт900:00+9с101681100 1.1 10251629
03:00+10с101578100 1.7 10261595
06:00+9с101477100 0.5 10271440
09:00+10с111472100 0.8 10291521
12:00+11с101369100 0.1 10281523
15:00+11ссв10126170 0.1 10281461
18:00+11ссв91160100 0.0 10291440
21:00+11ссв91161100 0.0 10281428
10 декабря, пт
пт1000:00+11ссв81062100 0.0 10281294
03:00+9с697191 0.0 1027910
06:00+9с697484 0.1 1027745
09:00+10с6871100 0.3 1027809
12:00+11с6768100 0.1 1025988
15:00+11ссв6666100 0.2 1024847
18:00+10с5670100 0.0 1024580
21:00+9ссз457191 0.0 1024320
11 декабря, сб
сб1100:00+8сз33702 0.0 1023229
03:00+7сз23660 0.0 1023151
06:00+8ссз22661 0.0 1023155
09:00+9с23642 0.0 1024202
12:00+12ссв35544 0.0 10221060
15:00+13ссз36522 0.0 10221063
18:00+12сз47595 0.0 1024587
21:00+10сз2468100 0.0 1024208
12 декабря, вс
вс1200:00+10зюз34707 0.0 1023213
03:00+9зюз34685 0.0 1021179
06:00+9зюз34665 0.0 1021196
09:00+11юз366651 0.0 1021300
12:00+12ююз5964100 0.0 1018743
15:00+13юз4764100 0.0 1015791
18:00+13зюз4565100 0.0 1013354
21:00+11з346699 0.0 1011171